Time,TemperatureF,DewpointF,PressureIn,WindDirection,WindDirectionDegrees,WindSpeedMPH,WindSpeedGustMPH,Humidity,HourlyPrecipIn,Conditions,Clouds,dailyrainin,SoftwareType,DateUTC
2013-10-14 00:00:00,78.8,67.3,30.03,East,91,1.0,2.0,68,0.00,,,0.00,Wunderground v.1.15,2013-10-14 04:00:00,
2013-10-14 00:10:00,78.5,67.1,30.03,East,79,2.0,2.0,68,0.00,,,0.00,Wunderground v.1.15,2013-10-14 04:10:00,
2013-10-14 00:20:00,78.5,67.1,30.03,ENE,76,1.0,1.0,68,0.00,,,0.00,Wunderground v.1.15,2013-10-14 04:20:00,
2013-10-14 00:30:00,77.4,66.4,30.02,WNW,293,1.0,1.0,69,0.00,,,0.00,Wunderground v.1.15,2013-10-14 04:30:00,
2013-10-14 00:40:00,76.3,66.6,30.02,NW,316,0.0,0.0,72,0.00,,,0.00,Wunderground v.1.15,2013-10-14 04:40:00,
2013-10-14 00:50:00,75.6,66.7,30.01,West,260,1.0,1.0,74,0.00,,,0.00,Wunderground v.1.15,2013-10-14 04:50:00,
2013-10-14 01:00:00,75.0,66.5,30.01,West,271,0.0,0.0,75,0.00,,,0.00,Wunderground v.1.15,2013-10-14 05:00:00,
2013-10-14 01:10:00,74.6,66.5,30.00,West,270,0.0,0.0,76,0.00,,,0.00,Wunderground v.1.15,2013-10-14 05:10:00,
2013-10-14 01:20:00,74.4,66.7,30.00,WNW,294,0.0,0.0,77,0.00,,,0.00,Wunderground v.1.15,2013-10-14 05:20:00,
2013-10-14 01:30:00,74.0,66.3,30.01,WNW,283,0.0,0.0,77,0.00,,,0.00,Wunderground v.1.15,2013-10-14 05:30:00,
2013-10-14 01:40:00,74.0,66.7,30.00,WNW,288,0.0,0.0,78,0.00,,,0.00,Wunderground v.1.15,2013-10-14 05:40:00,
2013-10-14 01:50:00,73.7,66.4,30.00,WNW,287,0.0,0.0,78,0.00,,,0.00,Wunderground v.1.15,2013-10-14 05:50:00,
2013-10-14 02:00:00,73.3,66.4,30.00,WNW,287,0.0,0.0,79,0.00,,,0.00,Wunderground v.1.15,2013-10-14 06:00:00,
2013-10-14 02:10:00,73.1,66.6,30.00,WNW,297,1.0,3.0,80,0.00,,,0.00,Wunderground v.1.15,2013-10-14 06:10:00,
2013-10-14 02:20:00,73.2,66.7,29.99,WNW,293,2.0,2.0,80,0.00,,,0.00,Wunderground v.1.15,2013-10-14 06:20:00,
2013-10-14 02:30:00,73.2,66.7,29.99,NW,307,2.0,2.0,80,0.00,,,0.00,Wunderground v.1.15,2013-10-14 06:30:00,
2013-10-14 02:40:00,73.4,66.9,29.99,SE,132,2.0,2.0,80,0.00,,,0.00,Wunderground v.1.15,2013-10-14 06:40:00,
2013-10-14 02:50:00,73.4,66.9,29.98,West,275,1.0,1.0,80,0.00,,,0.00,Wunderground v.1.15,2013-10-14 06:50:00,
2013-10-14 03:00:00,73.6,67.0,29.98,WNW,293,0.0,0.0,80,0.00,,,0.00,Wunderground v.1.15,2013-10-14 07:00:00,
2013-10-14 03:10:00,73.6,67.0,29.98,WNW,291,0.0,0.0,80,0.00,,,0.00,Wunderground v.1.15,2013-10-14 07:10:00,
2013-10-14 03:20:00,74.0,67.1,29.98,NNE,24,0.0,0.0,79,0.00,,,0.00,Wunderground v.1.15,2013-10-14 07:20:00,
2013-10-14 03:30:00,74.0,67.1,29.98,West,280,0.0,0.0,79,0.00,,,0.00,Wunderground v.1.15,2013-10-14 07:30:00,
2013-10-14 03:40:00,73.5,67.3,29.98,WNW,283,1.0,1.0,81,0.00,,,0.00,Wunderground v.1.15,2013-10-14 07:40:00,
2013-10-14 03:50:00,73.1,66.9,29.98,WNW,288,1.0,1.0,81,0.00,,,0.00,Wunderground v.1.15,2013-10-14 07:50:00,
2013-10-14 04:00:00,72.9,67.1,29.98,West,278,0.0,0.0,82,0.00,,,0.00,Wunderground v.1.15,2013-10-14 08:00:00,
2013-10-14 04:10:00,72.4,66.9,29.97,WNW,291,0.0,2.0,83,0.00,,,0.00,Wunderground v.1.15,2013-10-14 08:10:00,
2013-10-14 04:20:00,72.3,66.8,29.97,WNW,301,1.0,1.0,83,0.00,,,0.00,Wunderground v.1.15,2013-10-14 08:20:00,
2013-10-14 04:30:00,72.2,66.7,29.97,NW,315,0.0,0.0,83,0.00,,,0.00,Wunderground v.1.15,2013-10-14 08:30:00,
2013-10-14 04:40:00,72.0,66.9,29.97,NW,311,0.0,0.0,84,0.00,,,0.00,Wunderground v.1.15,2013-10-14 08:40:00,
2013-10-14 04:50:00,71.9,66.8,29.97,WNW,291,0.0,0.0,84,0.00,,,0.00,Wunderground v.1.15,2013-10-14 08:50:00,
2013-10-14 05:00:00,71.8,66.7,29.97,WNW,302,0.0,0.0,84,0.00,,,0.00,Wunderground v.1.15,2013-10-14 09:00:00,
2013-10-14 05:10:00,71.6,66.8,29.97,WNW,302,0.0,0.0,85,0.00,,,0.00,Wunderground v.1.15,2013-10-14 09:10:00,
2013-10-14 05:20:00,71.4,66.3,29.97,WNW,302,0.0,0.0,84,0.00,,,0.00,Wunderground v.1.15,2013-10-14 09:20:00,
2013-10-14 05:30:00,71.1,66.7,29.97,WNW,303,0.0,0.0,86,0.00,,,0.00,Wunderground v.1.15,2013-10-14 09:30:00,
2013-10-14 05:40:00,71.1,66.4,29.96,WNW,302,0.0,0.0,85,0.00,,,0.00,Wunderground v.1.15,2013-10-14 09:40:00,
2013-10-14 05:50:00,70.9,66.5,29.96,NNW,329,1.0,1.0,86,0.00,,,0.00,Wunderground v.1.15,2013-10-14 09:50:00,
2013-10-14 06:00:00,70.9,66.5,29.97,North,1,1.0,2.0,86,0.00,,,0.00,Wunderground v.1.15,2013-10-14 10:00:00,
2013-10-14 06:10:00,70.7,66.3,29.96,NNW,340,1.0,1.0,86,0.00,,,0.00,Wunderground v.1.15,2013-10-14 10:10:00,
2013-10-14 06:20:00,70.5,66.1,29.96,NNW,340,0.0,0.0,86,0.00,,,0.00,Wunderground v.1.15,2013-10-14 10:20:00,
2013-10-14 06:30:00,70.4,66.3,29.97,NNW,342,0.0,0.0,87,0.00,,,0.00,Wunderground v.1.15,2013-10-14 10:30:00,
2013-10-14 06:40:00,70.3,66.2,29.97,NNW,342,0.0,0.0,87,0.00,,,0.00,Wunderground v.1.15,2013-10-14 10:40:00,
2013-10-14 06:50:00,70.6,66.5,29.97,NNW,342,0.0,0.0,87,0.00,,,0.00,Wunderground v.1.15,2013-10-14 10:50:00,
2013-10-14 07:00:00,70.5,66.4,29.98,North,352,0.0,0.0,87,0.00,,,0.00,Wunderground v.1.15,2013-10-14 11:00:00,
2013-10-14 07:10:00,70.4,66.3,29.97,NNW,346,0.0,0.0,87,0.00,,,0.00,Wunderground v.1.15,2013-10-14 11:10:00,
2013-10-14 07:20:00,70.5,66.4,29.97,NNW,346,0.0,0.0,87,0.00,,,0.00,Wunderground v.1.15,2013-10-14 11:20:00,
2013-10-14 07:30:00,70.5,66.4,29.97,NNW,345,0.0,0.0,87,0.00,,,0.00,Wunderground v.1.15,2013-10-14 11:30:00,
2013-10-14 07:40:00,71.0,66.9,29.97,North,356,0.0,0.0,87,0.00,,,0.00,Wunderground v.1.15,2013-10-14 11:40:00,
2013-10-14 07:50:00,71.4,67.0,29.97,North,356,0.0,0.0,86,0.00,,,0.00,Wunderground v.1.15,2013-10-14 11:50:00,
2013-10-14 08:00:00,72.1,67.3,29.98,NNW,348,0.0,0.0,85,0.00,,,0.00,Wunderground v.1.15,2013-10-14 12:00:00,
2013-10-14 08:10:00,72.6,67.5,29.98,NNW,348,2.0,2.0,84,0.00,,,0.00,Wunderground v.1.15,2013-10-14 12:10:00,
2013-10-14 08:20:00,73.3,67.8,29.98,North,354,2.0,3.0,83,0.00,,,0.00,Wunderground v.1.15,2013-10-14 12:20:00,
2013-10-14 08:30:00,74.4,68.5,29.99,North,6,2.0,2.0,82,0.00,,,0.00,Wunderground v.1.15,2013-10-14 12:30:00,
2013-10-14 08:40:00,75.1,68.5,29.99,NNW,343,2.0,2.0,80,0.00,,,0.00,Wunderground v.1.15,2013-10-14 12:40:00,
2013-10-14 08:50:00,75.6,68.6,29.99,North,352,2.0,2.0,79,0.00,,,0.00,Wunderground v.1.15,2013-10-14 12:50:00,
2013-10-14 09:00:00,76.2,68.8,30.00,North,1,3.0,3.0,78,0.00,,,0.00,Wunderground v.1.15,2013-10-14 13:00:00,
2013-10-14 09:10:00,77.1,68.6,30.00,NNW,348,4.0,4.0,75,0.00,,,0.00,Wunderground v.1.15,2013-10-14 13:10:00,
2013-10-14 09:20:00,77.9,68.9,30.00,NNW,340,3.0,3.0,74,0.00,,,0.00,Wunderground v.1.15,2013-10-14 13:20:00,
2013-10-14 09:30:00,78.8,69.4,30.00,NNW,347,2.0,2.0,73,0.00,,,0.00,Wunderground v.1.15,2013-10-14 13:30:00,
2013-10-14 09:40:00,79.2,68.6,30.00,NNW,338,4.0,4.0,70,0.00,,,0.00,Wunderground v.1.15,2013-10-14 13:40:00,
2013-10-14 09:50:00,80.3,69.6,30.01,NNW,343,3.0,4.0,70,0.00,,,0.00,Wunderground v.1.15,2013-10-14 13:50:00,
2013-10-14 10:00:00,80.5,69.0,30.01,NNW,345,4.0,4.0,68,0.00,,,0.00,Wunderground v.1.15,2013-10-14 14:00:00,
2013-10-14 10:10:00,80.5,68.5,30.01,North,360,4.0,4.0,67,0.00,,,0.00,Wunderground v.1.15,2013-10-14 14:10:00,
2013-10-14 10:20:00,80.9,68.9,30.01,NNE,28,3.0,3.0,67,0.00,,,0.00,Wunderground v.1.15,2013-10-14 14:20:00,
2013-10-14 10:30:00,82.2,68.8,30.01,NE,37,2.0,6.0,64,0.00,,,0.00,Wunderground v.1.15,2013-10-14 14:30:00,
2013-10-14 10:40:00,82.5,68.2,30.01,NE,56,3.0,3.0,62,0.00,,,0.00,Wunderground v.1.15,2013-10-14 14:40:00,
2013-10-14 10:50:00,83.2,68.8,30.01,North,11,3.0,7.0,62,0.00,,,0.00,Wunderground v.1.15,2013-10-14 14:50:00,
2013-10-14 11:00:00,82.8,68.0,30.01,NE,43,5.0,6.0,61,0.00,,,0.00,Wunderground v.1.15,2013-10-14 15:00:00,
2013-10-14 11:10:00,82.5,68.6,30.01,NE,51,5.0,5.0,63,0.00,,,0.00,Wunderground v.1.15,2013-10-14 15:10:00,
2013-10-14 11:20:00,83.2,68.3,30.01,ENE,64,3.0,5.0,61,0.00,,,0.00,Wunderground v.1.15,2013-10-14 15:20:00,
2013-10-14 11:30:00,83.1,69.2,30.01,ENE,60,5.0,9.0,63,0.00,,,0.00,Wunderground v.1.15,2013-10-14 15:30:00,
2013-10-14 11:40:00,83.2,68.8,30.01,SE,129,4.0,4.0,62,0.00,,,0.00,Wunderground v.1.15,2013-10-14 15:40:00,
2013-10-14 11:50:00,83.8,69.4,30.01,NNE,28,4.0,8.0,62,0.00,,,0.00,Wunderground v.1.15,2013-10-14 15:50:00,
2013-10-14 12:00:00,83.0,69.1,30.01,NE,35,5.0,5.0,63,0.00,,,0.00,Wunderground v.1.15,2013-10-14 16:00:00,
2013-10-14 12:10:00,83.3,69.4,30.00,ENE,66,4.0,6.0,63,0.00,,,0.00,Wunderground v.1.15,2013-10-14 16:10:00,
2013-10-14 12:20:00,83.4,68.5,30.00,NE,51,5.0,7.0,61,0.00,,,0.00,Wunderground v.1.15,2013-10-14 16:20:00,
2013-10-14 12:30:00,83.2,69.8,30.00,NE,49,5.0,7.0,64,0.00,,,0.00,Wunderground v.1.15,2013-10-14 16:30:00,
2013-10-14 12:40:00,83.7,69.3,29.99,ENE,66,5.0,7.0,62,0.00,,,0.00,Wunderground v.1.15,2013-10-14 16:40:00,
2013-10-14 12:50:00,83.1,69.2,29.99,East,86,7.0,7.0,63,0.00,,,0.00,Wunderground v.1.15,2013-10-14 16:50:00,
2013-10-14 13:00:00,83.5,69.6,29.99,ENE,76,5.0,6.0,63,0.00,,,0.00,Wunderground v.1.15,2013-10-14 17:00:00,
2013-10-14 13:10:00,83.7,68.8,29.98,SSE,168,5.0,5.0,61,0.00,,,0.00,Wunderground v.1.15,2013-10-14 17:10:00,
2013-10-14 13:20:00,83.7,68.3,29.98,NE,56,5.0,6.0,60,0.00,,,0.00,Wunderground v.1.15,2013-10-14 17:20:00,
2013-10-14 13:30:00,83.2,68.8,29.97,ENE,65,6.0,7.0,62,0.00,,,0.00,Wunderground v.1.15,2013-10-14 17:30:00,
2013-10-14 13:40:00,83.7,68.8,29.97,ESE,113,5.0,5.0,61,0.00,,,0.00,Wunderground v.1.15,2013-10-14 17:40:00,
2013-10-14 13:50:00,83.7,68.8,29.96,East,84,6.0,6.0,61,0.00,,,0.00,Wunderground v.1.15,2013-10-14 17:50:00,
2013-10-14 14:00:00,83.4,68.1,29.96,East,96,7.0,7.0,60,0.00,,,0.00,Wunderground v.1.15,2013-10-14 18:00:00,
2013-10-14 14:10:00,83.7,67.8,29.95,NE,56,6.0,6.0,59,0.00,,,0.00,Wunderground v.1.15,2013-10-14 18:10:00,
2013-10-14 14:20:00,84.2,67.8,29.95,ENE,70,6.0,6.0,58,0.00,,,0.00,Wunderground v.1.15,2013-10-14 18:20:00,
2013-10-14 14:30:00,83.8,68.4,29.94,East,81,6.0,6.0,60,0.00,,,0.00,Wunderground v.1.15,2013-10-14 18:30:00,
2013-10-14 14:40:00,83.7,67.8,29.94,ENE,70,6.0,6.0,59,0.00,,,0.00,Wunderground v.1.15,2013-10-14 18:40:00,
2013-10-14 14:50:00,83.7,67.8,29.94,NE,56,6.0,6.0,59,0.00,,,0.00,Wunderground v.1.15,2013-10-14 18:50:00,
2013-10-14 15:00:00,83.7,67.8,29.93,ENE,75,6.0,6.0,59,0.00,,,0.00,Wunderground v.1.15,2013-10-14 19:00:00,
2013-10-14 15:10:00,83.9,68.0,29.93,ENE,77,6.0,6.0,59,0.00,,,0.00,Wunderground v.1.15,2013-10-14 19:10:00,
2013-10-14 15:20:00,83.7,67.8,29.93,East,97,7.0,7.0,59,0.00,,,0.00,Wunderground v.1.15,2013-10-14 19:20:00,
2013-10-14 15:30:00,83.8,67.4,29.92,ESE,115,6.0,6.0,58,0.00,,,0.00,Wunderground v.1.15,2013-10-14 19:30:00,
2013-10-14 15:40:00,83.8,67.9,29.92,ENE,66,5.0,6.0,59,0.00,,,0.00,Wunderground v.1.15,2013-10-14 19:40:00,
2013-10-14 15:50:00,83.8,67.9,29.92,ENE,60,5.0,6.0,59,0.00,,,0.00,Wunderground v.1.15,2013-10-14 19:50:00,
2013-10-14 16:00:00,83.4,67.6,29.92,NE,54,6.0,6.0,59,0.00,,,0.00,Wunderground v.1.15,2013-10-14 20:00:00,
2013-10-14 16:10:00,83.1,67.8,29.92,NE,56,5.0,11.0,60,0.00,,,0.00,Wunderground v.1.15,2013-10-14 20:10:00,
2013-10-14 16:20:00,83.3,68.0,29.92,NE,46,5.0,11.0,60,0.00,,,0.00,Wunderground v.1.15,2013-10-14 20:20:00,
2013-10-14 16:30:00,83.4,68.1,29.92,East,94,6.0,7.0,60,0.00,,,0.00,Wunderground v.1.15,2013-10-14 20:30:00,
2013-10-14 16:40:00,83.1,67.8,29.92,ENE,68,6.0,6.0,60,0.00,,,0.00,Wunderground v.1.15,2013-10-14 20:40:00,
2013-10-14 16:50:00,83.0,67.7,29.92,ENE,78,5.0,6.0,60,0.00,,,0.00,Wunderground v.1.15,2013-10-14 20:50:00,
2013-10-14 17:00:00,82.7,67.9,29.92,ESE,106,5.0,7.0,61,0.00,,,0.00,Wunderground v.1.15,2013-10-14 21:00:00,
2013-10-14 17:10:00,82.2,67.9,29.92,ENE,71,5.0,6.0,62,0.00,,,0.00,Wunderground v.1.15,2013-10-14 21:10:00,
2013-10-14 17:20:00,82.4,68.1,29.92,East,85,5.0,6.0,62,0.00,,,0.00,Wunderground v.1.15,2013-10-14 21:20:00,
2013-10-14 17:30:00,82.0,68.2,29.92,ENE,60,6.0,8.0,63,0.00,,,0.00,Wunderground v.1.15,2013-10-14 21:30:00,
2013-10-14 17:40:00,82.2,68.8,29.92,NE,53,5.0,9.0,64,0.00,,,0.00,Wunderground v.1.15,2013-10-14 21:40:00,
2013-10-14 17:50:00,81.8,68.4,29.92,NE,44,6.0,7.0,64,0.00,,,0.00,Wunderground v.1.15,2013-10-14 21:50:00,
2013-10-14 18:00:00,81.8,68.4,29.92,East,88,4.0,5.0,64,0.00,,,0.00,Wunderground v.1.15,2013-10-14 22:00:00,
2013-10-14 18:10:00,81.4,68.5,29.92,NE,51,6.0,6.0,65,0.00,,,0.00,Wunderground v.1.15,2013-10-14 22:10:00,
2013-10-14 18:20:00,81.2,68.8,29.93,NE,54,5.0,6.0,66,0.00,,,0.00,Wunderground v.1.15,2013-10-14 22:20:00,
2013-10-14 18:30:00,80.8,68.4,29.93,ENE,58,5.0,5.0,66,0.00,,,0.00,Wunderground v.1.15,2013-10-14 22:30:00,
2013-10-14 18:40:00,80.6,68.2,29.93,East,89,4.0,4.0,66,0.00,,,0.00,Wunderground v.1.15,2013-10-14 22:40:00,
2013-10-14 18:50:00,80.3,68.8,29.93,NNE,33,5.0,5.0,68,0.00,,,0.00,Wunderground v.1.15,2013-10-14 22:50:00,
2013-10-14 19:00:00,79.9,68.8,29.94,NNE,27,4.0,8.0,69,0.00,,,0.00,Wunderground v.1.15,2013-10-14 23:00:00,
2013-10-14 19:10:00,79.8,68.7,29.94,NE,39,4.0,4.0,69,0.00,,,0.00,Wunderground v.1.15,2013-10-14 23:10:00,
2013-10-14 19:20:00,79.8,68.7,29.94,SSE,149,5.0,5.0,69,0.00,,,0.00,Wunderground v.1.15,2013-10-14 23:20:00,
2013-10-14 19:30:00,79.7,68.6,29.94,NNE,19,4.0,6.0,69,0.00,,,0.00,Wunderground v.1.15,2013-10-14 23:30:00,
2013-10-14 19:40:00,79.7,68.2,29.94,NE,34,6.0,8.0,68,0.00,,,0.00,Wunderground v.1.15,2013-10-14 23:40:00,
2013-10-14 19:50:00,79.7,68.6,29.94,NE,42,6.0,6.0,69,0.00,,,0.00,Wunderground v.1.15,2013-10-14 23:50:00,
2013-10-14 20:00:00,79.6,68.1,29.94,ENE,66,4.0,6.0,68,0.00,,,0.00,Wunderground v.1.15,2013-10-15 00:00:00,
2013-10-14 20:10:00,79.6,68.1,29.95,ENE,61,4.0,4.0,68,0.00,,,0.00,Wunderground v.1.15,2013-10-15 00:10:00,
2013-10-14 20:20:00,79.5,68.0,29.95,NE,34,4.0,4.0,68,0.00,,,0.00,Wunderground v.1.15,2013-10-15 00:20:00,
2013-10-14 20:30:00,79.6,68.1,29.95,NNE,28,5.0,5.0,68,0.00,,,0.00,Wunderground v.1.15,2013-10-15 00:30:00,
2013-10-14 20:40:00,79.6,67.7,29.96,NE,43,5.0,5.0,67,0.00,,,0.00,Wunderground v.1.15,2013-10-15 00:40:00,
2013-10-14 20:50:00,79.4,67.9,29.96,East,79,3.0,3.0,68,0.00,,,0.00,Wunderground v.1.15,2013-10-15 00:50:00,
2013-10-14 21:00:00,79.3,67.8,29.96,ENE,59,3.0,4.0,68,0.00,,,0.00,Wunderground v.1.15,2013-10-15 01:00:00,
2013-10-14 21:10:00,79.4,67.9,29.97,NE,49,4.0,4.0,68,0.00,,,0.00,Wunderground v.1.15,2013-10-15 01:10:00,
2013-10-14 21:20:00,79.5,68.0,29.97,NE,37,4.0,4.0,68,0.00,,,0.00,Wunderground v.1.15,2013-10-15 01:20:00,
2013-10-14 21:30:00,79.4,68.3,29.97,NE,48,3.0,3.0,69,0.00,,,0.00,Wunderground v.1.15,2013-10-15 01:30:00,
2013-10-14 21:40:00,79.4,67.9,29.97,ENE,58,3.0,4.0,68,0.00,,,0.00,Wunderground v.1.15,2013-10-15 01:40:00,
2013-10-14 21:50:00,79.4,67.9,29.98,NNE,19,4.0,4.0,68,0.00,,,0.00,Wunderground v.1.15,2013-10-15 01:50:00,
2013-10-14 22:00:00,79.4,67.9,29.98,NE,50,4.0,4.0,68,0.00,,,0.00,Wunderground v.1.15,2013-10-15 02:00:00,
2013-10-14 22:10:00,79.4,67.5,29.98,ENE,60,4.0,5.0,67,0.00,,,0.00,Wunderground v.1.15,2013-10-15 02:10:00,
2013-10-14 22:20:00,79.4,67.9,29.98,NE,46,4.0,4.0,68,0.00,,,0.00,Wunderground v.1.15,2013-10-15 02:20:00,
2013-10-14 22:30:00,79.3,67.8,29.98,East,98,4.0,4.0,68,0.00,,,0.00,Wunderground v.1.15,2013-10-15 02:30:00,
2013-10-14 22:40:00,79.3,67.8,29.98,ESE,114,4.0,4.0,68,0.00,,,0.00,Wunderground v.1.15,2013-10-15 02:40:00,
2013-10-14 22:50:00,79.2,67.7,29.98,ENE,70,3.0,4.0,68,0.00,,,0.00,Wunderground v.1.15,2013-10-15 02:50:00,
2013-10-14 23:00:00,79.1,67.6,29.98,ENE,65,3.0,3.0,68,0.00,,,0.00,Wunderground v.1.15,2013-10-15 03:00:00,
2013-10-14 23:10:00,79.2,68.1,29.97,East,98,4.0,4.0,69,0.00,,,0.00,Wunderground v.1.15,2013-10-15 03:10:00,
2013-10-14 23:20:00,78.9,68.3,29.97,NNE,28,2.0,2.0,70,0.00,,,0.00,Wunderground v.1.15,2013-10-15 03:20:00,
2013-10-14 23:30:00,78.7,68.1,29.97,ENE,74,2.0,2.0,70,0.00,,,0.00,Wunderground v.1.15,2013-10-15 03:30:00,
2013-10-14 23:40:00,78.7,68.1,29.97,NE,54,3.0,3.0,70,0.00,,,0.00,Wunderground v.1.15,2013-10-15 03:40:00,
2013-10-14 23:50:00,78.7,68.1,29.97,ENE,67,3.0,3.0,70,0.00,,,0.00,Wunderground v.1.15,2013-10-15 03:50:00,